Meteo Giornale » Osservazioni meteo Canada » Charlottetown P E I
ore: 18:00 - Osservazioni Meteo Charlottetown P E I
Lat. 46° 17' N Lon. 63° 8' W Alt. 48 metri s.l.m.
17 °C
Poco Nuvoloso
Temp. 24 Ore
14 °C
21 °C
Nord/NOvest
11.1 Km/h
Dew point 11 °C
Umidità 67 %
Visibilità 24 Km
Il sole sorge alle ore 06:31
Il sole tramonta alle ore 19:53
| Data e Ora | Cielo e Fenomeni | T °C | DP °C | Um. % | Pres. hPa | Vis. km | Vento km/h | |
|---|---|---|---|---|---|---|---|---|
| Oggi h: 18:00 | Poco Nuvoloso | 17 | 11 | 67 | 1015 | 24 | N/NO 11.1 | |
| Oggi h: 17:00 | Nuvoloso | 18 | 11 | 63 | 1015 | 24 | N/NO 16.7 | |
| Oggi h: 16:00 | Molto Nuvoloso | 18 | 11 | 63 | 1014 | 24 | N/NO 20.3 | |
| Oggi h: 15:00 | Molto Nuvoloso | 18 | 11 | 63 | 1014 | 24 | N/NO 22.2 | |
| Oggi h: 14:00 | Molto Nuvoloso | 17 | 11 | 67 | 1013 | 24 | N/NO 18.5 | |
| Oggi h: 13:00 | Molto Nuvoloso | 18 | 12 | 67 | 1013 | 24 | NO 20.3 | |
| Oggi h: 12:00 | Molto Nuvoloso | 17 | 11 | 67 | 1013 | 24 | NO 18.5 | |
| Oggi h: 11:00 | Molto Nuvoloso | 18 | 12 | 67 | 1012 | 24 | N/NO 24 | |
| Oggi h: 10:00 | Molto Nuvoloso | 18 | 12 | 67 | 1012 | 24 | NO 22.2 | |
| Oggi h: 09:00 | Poco Nuvoloso | 16 | 13 | 82 | 1011 | 24 | O/NO 14.8 | |
| Oggi h: 08:00 | Poco Nuvoloso | 15 | 13 | 87 | 1011 | 24 | O/NO 13 | |
| Oggi h: 07:00 | Nuvoloso | 14 | 12 | 87 | 1011 | 24 | O 13 | |
| Oggi h: 06:00 | Nuvoloso | 14 | 12 | 87 | 1010 | 24 | O/NO 14.8 | |
| Oggi h: 05:00 | Coperto | 15 | 13 | 87 | 1010 | 24 | O 13 | |
| Oggi h: 04:00 | Coperto | 15 | 14 | 93 | 1010 | 24 | O 13 | |
| Oggi h: 03:29 | Coperto | 15 | 14 | 93 | 1009 | 24 | O 9.3 | |
| Oggi h: 03:00 | Pioggia | 15 | 14 | 93 | 1010 | 24 | O 11.1 | |
| Oggi h: 02:00 | Pioggia | 15 | 13 | 87 | 1010 | 24 | O/SO 11.1 | |
| Oggi h: 01:00 | Pioggia | 15 | 13 | 87 | 1010 | 24 | N 0 | |
| Oggi h: 00:00 | Pioggia | 16 | 14 | 87 | 1010 | 24 | NO 18.5 | |
| Ieri h: 23:38 | Pioggia | 16 | 15 | 93 | 1010 | 24 | O 7.4 | |
| Ieri h: 23:00 | Coperto | 16 | 15 | 93 | 1010 | 24 | N 0 | |
| Ieri h: 22:00 | Molto Nuvoloso | 16 | 15 | 93 | 1010 | 24 | N 3.7 | |
| Ieri h: 21:46 | Molto Nuvoloso | 16 | 15 | 93 | 1010 | 24 | N 5.5 | |
| Ieri h: 21:00 | Coperto | 17 | 14 | 82 | 1011 | 24 | N/NO 13 | |
| Ieri h: 20:50 | Coperto | 18 | 15 | 82 | 1011 | 24 | NO 27.8 | |
| Ieri h: 20:00 | Nuvoloso | 20 | 15 | 72 | 1010 | 24 | SO 11.1 | |
| Ieri h: 19:00 | Poco Nuvoloso | 21 | 15 | 68 | 1010 | 24 | SO 16.7 | |



